TimeEST,TemperatureF,Dew PointF,Humidity,Sea Level PressureIn,VisibilityMPH,Wind Direction,Wind SpeedMPH,Gust SpeedMPH,PrecipitationIn,Events,Conditions,WindDirDegrees,DateUTC
12:55 AM,23.5,5.7,47,30.09,10.0,North,8.1,-,N/A,,Overcast,350,2013-01-18 05:55:00
1:55 AM,21.7,3.0,45,30.08,10.0,NNW,10.4,-,N/A,,Overcast,330,2013-01-18 06:55:00
2:55 AM,20.3,-2.2,37,30.13,10.0,NNW,10.4,-,N/A,,Overcast,330,2013-01-18 07:55:00
3:55 AM,19.2,-3.6,36,30.10,10.0,WNW,13.8,-,N/A,,Overcast,300,2013-01-18 08:55:00
4:55 AM,17.1,-8.9,31,30.14,10.0,WNW,15.0,19.6,N/A,,Overcast,290,2013-01-18 09:55:00
5:55 AM,14.5,-8.9,35,30.19,10.0,NW,15.0,-,N/A,,Scattered Clouds,310,2013-01-18 10:55:00
6:55 AM,12.9,-10.8,34,30.24,10.0,WNW,12.7,-,N/A,,Scattered Clouds,300,2013-01-18 11:55:00
7:55 AM,12.4,-11.4,34,30.27,10.0,WNW,13.8,21.9,N/A,,Partly Cloudy,290,2013-01-18 12:55:00
8:55 AM,13.3,-13.0,30,30.30,10.0,WNW,16.1,25.3,N/A,,Partly Cloudy,290,2013-01-18 13:55:00
9:55 AM,14.4,-12.6,29,30.33,10.0,WNW,12.7,-,N/A,,Partly Cloudy,300,2013-01-18 14:55:00
10:55 AM,15.4,-11.0,30,30.33,10.0,WNW,17.3,24.2,N/A,,Partly Cloudy,290,2013-01-18 15:55:00
11:55 AM,18.0,-9.8,29,30.32,10.0,WNW,17.3,31.1,N/A,,Partly Cloudy,300,2013-01-18 16:55:00
12:55 PM,19.4,-7.4,30,30.32,10.0,West,17.3,28.8,N/A,,Partly Cloudy,280,2013-01-18 17:55:00
1:55 PM,19.9,-8.1,29,30.33,10.0,West,17.3,25.3,N/A,,Partly Cloudy,280,2013-01-18 18:55:00
2:55 PM,21.0,-6.2,30,30.36,10.0,West,8.1,-,N/A,,Partly Cloudy,270,2013-01-18 19:55:00
3:55 PM,21.0,-6.7,29,30.36,10.0,West,11.5,18.4,N/A,,Partly Cloudy,270,2013-01-18 20:55:00
4:55 PM,19.4,-7.6,30,30.38,10.0,WNW,10.4,-,N/A,,Clear,290,2013-01-18 21:55:00
5:55 PM,18.7,-4.7,36,30.40,10.0,WSW,3.5,-,N/A,,Clear,240,2013-01-18 22:55:00
6:55 PM,14.2,-4.2,44,30.42,10.0,SSE,5.8,-,N/A,,Clear,160,2013-01-18 23:55:00
7:55 PM,15.1,-5.3,40,30.42,10.0,SSW,4.6,-,N/A,,Clear,200,2013-01-19 00:55:00
8:55 PM,15.1,-3.6,43,30.43,10.0,SSW,6.9,-,N/A,,Clear,210,2013-01-19 01:55:00
9:55 PM,15.1,-2.4,46,30.42,10.0,SSW,5.8,-,N/A,,Clear,200,2013-01-19 02:55:00
10:55 PM,15.3,-0.9,49,30.40,10.0,South,3.5,-,N/A,,Partly Cloudy,190,2013-01-19 03:55:00
11:55 PM,17.4,1.9,51,30.38,10.0,South,4.6,-,N/A,,Overcast,180,2013-01-19 04:55:00